Location: Beadle
(51.4667°N, 109.0000°W)
Time: 10:08:38
(UTC+00:00)

deb Explorer IX - Pass Details

Date: 02 June 2022
Orbit: 535 x 1068 km, 38.8° (Epoch: 04 July)

Event Time Altitude Azimuth Distance (km) Brightness Sun altitude
Rises 15:22:49 0° 212° (SSW) 3,811 ? 37.1°
Reaches altitude 10° 15:26:27 10° 195° (SSW) 2,887 ? 37.7°
Maximum altitude 15:30:58 18° 155° (SSE) 2,348 ? 38.3°
Drops below altitude 10° 15:35:25 10° 116° (ESE) 2,859 ? 39.0°
Sets 15:38:59 0° 98° (E) 3,760 ? 39.6°
